Regional Weather Roundup
Issued by NWS

Home | Current Version | Previous Version | Text Only | Print | Product List | Glossary On
Versions: 1 2 3 4 5 6 7 8 9 10 11 12 13 14 15 16 17 18 19 20 21 22 23 24 25 26 27 28 29 30 31 32 33 34 35 36 37 38 39 40 41 42 43 44 45 46 47 48 49 50
000
ASHW40 PHFO 260543
RWRHI

WEATHER ROUNDUP FOR HAWAII
NATIONAL WEATHER SERVICE HONOLULU HI
700 PM HST FRI JUL 25 2014

THIS IS AN AUTOMATED REPORT THAT HAS NOT BEEN QUALITY CONTROLLED.

NOTE..."FAIR" INDICATES FEW OR NO CLOUDS BELOW 12,000 FEET WITH NO
SIGNIFICANT WEATHER AND/OR OBSTRUCTIONS TO VISIBILITY.

* - THESE SITES REPORT LIMITED FIELDS

HIZ001>004-260600-
KAUAI-NIIHAU-

CITY           SKY/WX    TMP DP  RH WIND       PRES   REMARKS
LIHUE APT      CLOUDY    79  68  69 NE14      29.98R
PORT ALLEN*      N/A     81 N/A N/A NE14        N/A
POIPU*           N/A     81 N/A N/A NE8G16      N/A
PRINCEVILLE*   NOT AVBL
KOKOLE POINT*  NOT AVBL
MOLOAA DAIRY*  NOT AVBL
WAIMEA HTS*      N/A     77  59  53 E5G16       N/A
PUU OPAE*        N/A     70  64  83 CALM        N/A
PUU LUA*       NOT AVBL
MAKAHA RIDGE*  NOT AVBL
$$

HIZ005>011-260600-
OAHU-

CITY           SKY/WX    TMP DP  RH WIND       PRES   REMARKS
HONOLULU       PTCLDY    81  66  60 NE15G22   29.95R
KALAELOA       CLEAR     81  65  58 NE3       29.95S
KANEOHE MCB    CLEAR     79  65  62 E9        29.96R
WHEELER FIELD  FAIR      75  68  80 E5        29.97S
BELLOWS*         N/A    N/A N/A N/A NE16        N/A
KAHUKU*          N/A    N/A N/A N/A NE6G14      N/A
WHEELER*       NOT AVBL
WAIANAE HARBOR NOT AVBL
DILLINGHAM*      N/A     81  72  74 NE7G14      N/A
KAHUKU TRN*      N/A     73  72  94 E5G20       N/A
KAWAILOA*      NOT AVBL
KII*             N/A     77  72  83 CALM        N/A
MAKUA RANGE*     N/A     81  68  65 NE8G16      N/A
OAHU FOREST NW   N/A     66  66 100 NE15G28     N/A
SCHOFIELD BRK*   N/A     75  66  73 MISG        N/A
SCHOFIELD S*   NOT AVBL
WAIANAE VLY*     N/A     73  63  68 S2G13       N/A
KUAOKALA*        N/A     73  68  83 CALM        N/A
HONOULIUULI*   NOT AVBL
MOKUOLOE IS*     N/A    N/A N/A N/A MISG        N/A
PALEHUA*         N/A     81  68  65 CALM        N/A
WAIAWA PHB*    NOT AVBL
$$

HIZ012>013-260600-
MOLOKAI-

CITY           SKY/WX    TMP DP  RH WIND       PRES   REMARKS
MOLOKAI AIRPT  CLEAR     77  72  84 NE13G24   29.95S
KALAUPAPA      NOT AVBL
MAKAPULAPAI*     N/A     77  68  73 E16G24      N/A
MOLOKAI 1*       N/A     66  57  72 E5G17       N/A
PUU ALII*        N/A     62  59  91 SE1         N/A
$$

HIZ016-260600-
KAHOOLAWE-

CITY           SKY/WX    TMP DP  RH WIND       PRES   REMARKS
KAHOOLAWE*       N/A     72 N/A N/A E16G23      N/A
HAKIOAWA*        N/A     73  67  82 MISG      30.08R
HONOKANAIA*      N/A     80  70  70 NE17G29   29.95R
KANELOA*         N/A     77  70  78 E16G26    30.06R
KEALIALALO*      N/A    N/A N/A N/A SE16G30   30.26R
LUA MAKIKA*    NOT AVBL
$$

HIZ014>015-260600-
LANAI-

CITY           SKY/WX    TMP DP  RH WIND       PRES   REMARKS
LANAI CITY     FAIR      74  67  78 NE16      30.00S
LANAI 1*         N/A     72  70  94 NE16G26     N/A
$$

HIZ017>028-260600-
MAUI-

CITY           SKY/WX    TMP DP  RH WIND       PRES   REMARKS
KAHULUI        PTCLDY    80  66  62 NE14      29.93R
KAPALUA-W MAUI NOT AVBL
HANA AIRPORT   CLOUDY    77  70  78 E5        30.01R
HANA*            N/A     79 N/A N/A E7          N/A
HALEAKALA SUMM   N/A     50   0  12 E21         N/A
MAALAEA BAY*   NOT AVBL
HALEAKALA*     NOT AVBL
KAUPO GAP*       N/A     64  64 100 CALM        N/A
KULA 1*          N/A     55  53  94 NW2         N/A
$$

HIZ023>026-260600-
BIG ISLAND OF HAWAII COAST AND LOWER SLOPES-

CITY           SKY/WX    TMP DP  RH WIND       PRES   REMARKS
KAILUA KONA    CLOUDY    82  68  62 S5        29.91R
HILO           LGT RAIN  75  71  87 W10       29.96R
HONOKAA*       NOT AVBL
KAWAIHAE MWT*    N/A     82 N/A N/A SW5         N/A
KAWAIHAE*        N/A     81 N/A N/A NE2         N/A
SOUTH POINT*     N/A     73 N/A N/A NE16G23     N/A
UPOLU AIRPORT*   N/A    N/A N/A N/A E14G22      N/A
KAMUELA*       MOCLDY    66  63  88 NE10      30.07R
HAKALAU*         N/A     55  55  98 SE3         N/A
KALOKO-HONOKO*   N/A     81  66  61 S3        29.91
PALI 2*          N/A     66  61  82 N14G21      N/A
KEALAKOMO*       N/A     82  68  61 NE13G21     N/A
KAUPULEHU*       N/A     75  61  60 SE5         N/A
KAPAPALA*        N/A     73  65  77 E3G12       N/A
LOWER KAHUKU*  NOT AVBL
PUHE CS*       NOT AVBL
PUHO CS*         N/A     80  66  61 W2          N/A
PTA KEAMUKU*     N/A     64  63  94 W2          N/A
WAIKOLOA*        N/A     73  64  73 E10         N/A
$$

HIZ027>028-260600-
BIG ISLAND OF HAWAII INTERIOR AND SUMMMITS-

CITY           SKY/WX    TMP DP  RH WIND       PRES   REMARKS
BRADSHAW FIELD PTCLDY    59  56  92 W7        30.28R
MK VISITOR CEN NOT AVBL
MAUNA KEA*       N/A     39 -11  11 SE10        N/A
MAUNA LOA*       N/A    N/A N/A N/A MISG        N/A
MAUNA LOA 1*   NOT AVBL
PTA KIPUKA*      N/A     61  59  94 NW3G9       N/A
PTA RANGE 17*    N/A     57  57 100 W6          N/A
PTA WEST*        N/A    N/A N/A N/A W5G12       N/A
NENE CABIN*    NOT AVBL
AHUMOA*          N/A     56  56 100 N2          N/A
PTA PORTABLE*  NOT AVBL
PUU MALI*      NOT AVBL
$$

HIC003-260600-
NORTHWEST ISLANDS-

CITY           SKY/WX    TMP DP  RH WIND       PRES   REMARKS
MIDWAY ISLAND  SUNNY     84  73  70 SE3       30.05S HX  91
MIDWAY NOS*    NOT AVBL
FRENCH FRIGATE NOT AVBL
$$

PHZ110>124-180-260600-
BUOY REPORTS

STATION/POSITION TIME  TEMP    WIND        PRES    WAVE   SWELL
                       AIR SEA DIR/SP/G            HT/PER HT/DIR
                 (UTC) (F)     (DEG/KT/KT) (MB)    (FT/S) (FT/D)
BUOY 51001       NOT AVBL
BUOY 51101       NOT AVBL
BUOY 51100       0500   78 78   90/ 14/ 16 1015.7R
BUOY 51003       0500   79 81  100/  8/ 10 1013.4R   7/ 8   7
BUOY 51004       0445   79 80   70/ 19/ 21 1012.1R   7/ 8   3/ 90
BARBERS PT BUOY  NOT AVBL
WAIMEA BAY BUOY  0500      80                N/A     3/ 5
KAILUA BAY BUOY  0500      80                N/A     5/ 8
LANAI BUOY       0500      81                N/A     2/14   2/190
BARBERS PT 2     0500      81                N/A     4/ 8   2/180
PAUWELA MAUI     0500      79                N/A     5/ 8
HILO             NOT AVBL
KANEOHE BAY BUOY 0500      80                N/A     4/ 7
HANALEI KAUAI    NOT AVBL
KAHULUI HARBOR   0500   79 81   50/ 13/ 18 1013.6R
HONOLULU HARBOR  0500   80      40/  6/ 10 1014.5R
KILO NALU        NOT AVBL
HILO HARBOR      0500   74     270/ 11/ 14 1014.2R
MOKUOLOE         0500      82              1015.0R
NAWILIWILI       0500      81                N/A
WHOTS BUOY       NOT AVBL
BUOY 51028       NOT AVBL
$$

......................KEY........................................
  SKY/WX - SKY CONDITIONS/PRESENT WEATHER
  TMP    - TEMPERATURE IN FAHRENHEIT
  DWPT   - DEWPOINT IN FAHRENHEIT
  RH     - RELATIVE HUMIDITY IN PERCENT
  WIND   - DIRECTION AND SPEED /MPH FOR ISLANDS...KTS FOR BUOYS/
  PRES   - MEAN SEA LEVEL PRESSURE IN INCHES OF HG
  VSB    - VISIBILITY IN MILES
  HX     - HEAT INDEX
  WCI    - WIND CHILL INDEX
  VRB    - VARIABLE WIND DIRECTION
  N/A    - NOT AVAILABLE



USA.gov is the U.S. government's official web portal to all federal, state and local government web resources and services.